Погода в Николаевке

Украина / Одесская область     46°18′05″N   30°19′52″E
темп.,
°C
ветер,
м/с
пор.,
м/с
влажн.,
%
обл.,
%
осадки,
мм/ч
давл.,
гПа
погр.,
м
2 марта, вт
вт223:00+2с488199 0.0 1032263
02:00+1с488492 0.0 1033219
05:00+1сз347778 0.0 103289
08:00+2сз237882 0.0 103299
11:00+4зсз356810 0.0 1031416
14:00+6з466439 0.0 1029414
17:00+6з696561 0.0 1026287
20:00+5з687046 0.0 1025124
3 марта, ср
ср323:00+5сз6117533 0.0 1025202
02:00+4ссз7128217 0.0 1027304
05:00+4с7117887 0.0 1027433
08:00+4ссз597090 0.0 1029440
11:00+6ссз57630 0.0 1030436
14:00+7ссз46570 0.0 1029489
17:00+6сз34570 0.0 1028460
20:00+5зсз226550 0.0 102922
4 марта, чт
чт423:00+4юз126724 0.0 102822
02:00+4юз456912 0.0 102641
05:00+3ююз45860 0.0 102472
08:00+4ююз58833 0.0 1022159
11:00+8ююз710670 0.0 1020307
14:00+9ююз710610 0.0 1017405
17:00+9ююз696415 0.0 1015242
20:00+6ююз698119 0.0 1015131
5 марта, пт
пт523:00+5ююз578418 0.0 101492
02:00+5юз348531 0.0 101347
05:00+5ююз348539 0.0 101235
08:00+5ююз348370 0.0 101268
11:00+8юз3465100 0.0 1011187
14:00+10зюз345593 0.0 1010368
17:00+10зсз225641 0.0 101034
20:00+8св456221 0.0 101137
6 марта, сб
сб623:00+6св347740 0.0 101242
02:00+5с7119070 0.0 1013213
05:00+5с71091100 0.0 1015232
08:00+1ссв101394100 0.2 1018639
11:00+3с81060100 0.1 1020648
14:00+3с81051100 0.1 1022746
17:00+3с71047100 0.0 1024801
20:00+2с495567 0.0 1026305